If you wish to contribute or participate in the discussions about articles you are invited to join SKYbrary as a registered user

 Actions

Turin/Caselle Airport

From SKYbrary Wiki

LIMF
Airport
ICAO: LIMF – IATA: TRN
Summary
Name Turin/Caselle Airport
Region Europe
Territory Italy IT.gif
Location Caselle Torinese, Piedmont
Serving Turin
Elevation 301.447 m
989 ft
989 ft301.447 m
Coordinates 45° 11' 50.89" N, 7° 38' 57.75" E
Runways
Designator Length Width Surface ROPS
18/36 3300 m10,826.772 ft
60 m196.85 ft
ASP yes/yes


METAR
Observation LIMF 050620Z VRB02KT CAVOK 17/13 Q0997
Station Torino / Caselle
Date/Time 05 June 2020 06:20:00
Wind direction °
Wind speed 02 kts
Lowest cloud amount clouds and visibility OK
Temperature 17°C
Dew point 13°C
Humidity 77%
QNH 997 hPa
Weather condition n/a

WX
Tag(s) Fohn Effect
Low Level Turbulence

International airport serving city of Turin.

Climatology

Humid “subtropical” climate (Köppen climate classification Cfa) - characterized by hot, humid summers and cool winters. Significant amounts of precipitation occur in all seasons in most areas. Winter rainfall (and sometimes snowfall) is associated with large storms that the westerlies steer from west to east. Most summer rainfall occurs during thunderstorms.

Maps

Terrain

Loading map...

Airport Layout

Loading map...


Accidents & Serious Incidents at or in vicinity of LIMF

None on SKYbrary